• en Suisse
  • Liste des pays
  • À 7 jours
  • Température de l'eau
  • Carte satellitaire
  • Carte météo
  • Widgets météo
  • user-avatar
    Se connecter

    Météo par heure à Ipswich

    Ce jour, 23 Mai, Mercredi

    Heure Température Précipitation Vent Pression Humidité
    00:00 +8°C° 0 mm 6 m/s 764 mmHg 96%
    01:00 +8°C° 0 mm 6 m/s 764 mmHg 96%
    02:00 +8°C° 0 mm 6 m/s 764 mmHg 96%
    03:00 +8°C° 0 mm 6 m/s 764 mmHg 96%
    04:00 +8°C° 0 mm 6 m/s 764 mmHg 94%
    05:00 +9°C° 0 mm 6 m/s 765 mmHg 91%
    06:00 +10°C° 0 mm 6 m/s 765 mmHg 89%
    07:00 +13°C° 0 mm 6 m/s 765 mmHg 84%
    08:00 +15°C° 0 mm 6 m/s 765 mmHg 79%
    09:00 +16°C° 0 mm 6 m/s 765 mmHg 74%
    10:00 +17°C° 0 mm 7 m/s 765 mmHg 70%
    11:00 +18°C° 0 mm 7 m/s 765 mmHg 67%
    12:00 +20°C° 0 mm 7 m/s 765 mmHg 64%
    13:00 +20°C° 0 mm 7 m/s 765 mmHg 65%
    14:00 +20°C° 0 mm 7 m/s 765 mmHg 67%
    15:00 +20°C° 0 mm 7 m/s 765 mmHg 68%
    16:00 +18°C° 0 mm 7 m/s 765 mmHg 72%
    17:00 +17°C° 0 mm 6 m/s 765 mmHg 75%
    18:00 +16°C° 0 mm 6 m/s 765 mmHg 78%
    19:00 +15°C° 0 mm 6 m/s 765 mmHg 79%
    20:00 +14°C° 0 mm 6 m/s 765 mmHg 80%
    21:00 +13°C° 0 mm 6 m/s 765 mmHg 81%
    22:00 +13°C° 0,1 mm 6 m/s 765 mmHg 82%
    23:00 +13°C° 0,1 mm 6 m/s 765 mmHg 82%

    Demain, 24 Mai, Jeudi

    Heure Température Précipitation Vent Pression Humidité
    00:00 +13°C° 0,1 mm 6 m/s 765 mmHg 82%
    01:00 +13°C° 0,3 mm 6 m/s 765 mmHg 83%
    02:00 +13°C° 0,3 mm 6 m/s 764 mmHg 85%
    03:00 +13°C° 0,3 mm 6 m/s 764 mmHg 86%
    04:00 +13°C° 0,2 mm 6 m/s 764 mmHg 86%
    05:00 +14°C° 0,2 mm 6 m/s 764 mmHg 85%
    06:00 +14°C° 0,2 mm 6 m/s 764 mmHg 84%
    07:00 +15°C° 0,1 mm 6 m/s 764 mmHg 81%
    08:00 +16°C° 0,1 mm 5 m/s 764 mmHg 79%
    09:00 +17°C° 0,1 mm 5 m/s 764 mmHg 76%
    10:00 +17°C° 0,1 mm 5 m/s 764 mmHg 74%
    11:00 +19°C° 0,1 mm 5 m/s 764 mmHg 72%
    12:00 +20°C° 0,1 mm 5 m/s 764 mmHg 70%
    13:00 +20°C° 0,1 mm 5 m/s 763 mmHg 71%
    14:00 +20°C° 0,1 mm 5 m/s 763 mmHg 72%
    15:00 +19°C° 0,1 mm 5 m/s 763 mmHg 73%
    16:00 +19°C° 0,2 mm 5 m/s 762 mmHg 76%
    17:00 +17°C° 0,2 mm 5 m/s 762 mmHg 80%
    18:00 +17°C° 0,2 mm 4 m/s 762 mmHg 83%
    19:00 +15°C° 0,4 mm 4 m/s 762 mmHg 87%
    20:00 +14°C° 0,4 mm 4 m/s 762 mmHg 91%
    21:00 +13°C° 0,4 mm 3 m/s 762 mmHg 94%
    22:00 +13°C° 0,4 mm 3 m/s 762 mmHg 95%
    23:00 +14°C° 0,4 mm 2 m/s 762 mmHg 96%

    Après-demain, 25 Mai, Vendredi

    Heure Température Précipitation Vent Pression Humidité
    00:00 +13°C° 0,4 mm 2 m/s 762 mmHg 97%
    01:00 +13°C° 0,1 mm 2 m/s 761 mmHg 97%
    02:00 +13°C° 0,1 mm 2 m/s 761 mmHg 98%
    03:00 +13°C° 0,1 mm 2 m/s 761 mmHg 98%
    04:00 +14°C° 0 mm 1 m/s 761 mmHg 97%
    05:00 +14°C° 0 mm 1 m/s 761 mmHg 96%
    06:00 +15°C° 0 mm 1 m/s 762 mmHg 95%
    07:00 +16°C° 0 mm 1 m/s 762 mmHg 91%
    08:00 +18°C° 0 mm 1 m/s 762 mmHg 87%
    09:00 +20°C° 0 mm 1 m/s 762 mmHg 83%
    10:00 +20°C° 0 mm 1 m/s 762 mmHg 80%
    11:00 +21°C° 0 mm 1 m/s 762 mmHg 76%
    12:00 +22°C° 0 mm 1 m/s 762 mmHg 73%
    13:00 +23°C° 0 mm 1 m/s 762 mmHg 72%
    14:00 +23°C° 0 mm 1 m/s 762 mmHg 72%
    15:00 +23°C° 0 mm 2 m/s 762 mmHg 72%
    16:00 +23°C° 0 mm 2 m/s 762 mmHg 75%
    17:00 +21°C° 0 mm 2 m/s 762 mmHg 78%
    18:00 +21°C° 0 mm 3 m/s 762 mmHg 81%
    19:00 +19°C° 0 mm 3 m/s 763 mmHg 85%
    20:00 +18°C° 0 mm 3 m/s 763 mmHg 90%
    21:00 +16°C° 0 mm 3 m/s 763 mmHg 94%
    22:00 +16°C° 0 mm 3 m/s 763 mmHg 95%
    23:00 +14°C° 0 mm 3 m/s 763 mmHg 95%

    26 Mai, Samedi

    Heure Température Précipitation Vent Pression Humidité
    00:00 +15°C° 0 mm 2 m/s 763 mmHg 96%
    01:00 +14°C° 0 mm 3 m/s 763 mmHg 96%
    02:00 +14°C° 0 mm 3 m/s 763 mmHg 96%
    03:00 +14°C° 0 mm 3 m/s 763 mmHg 97%
    04:00 +14°C° 0 mm 4 m/s 763 mmHg 96%
    05:00 +15°C° 0 mm 4 m/s 763 mmHg 94%
    06:00 +17°C° 0 mm 4 m/s 763 mmHg 93%
    07:00 +19°C° 0 mm 5 m/s 763 mmHg 89%
    08:00 +20°C° 0 mm 5 m/s 764 mmHg 84%
    09:00 +22°C° 0 mm 5 m/s 764 mmHg 80%
    10:00 +23°C° 0 mm 6 m/s 764 mmHg 77%
    11:00 +23°C° 0 mm 6 m/s 764 mmHg 74%
    12:00 +24°C° 0 mm 6 m/s 764 mmHg 71%
    13:00 +24°C° 0 mm 6 m/s 763 mmHg 72%
    14:00 +23°C° 0 mm 7 m/s 763 mmHg 72%
    15:00 +23°C° 0 mm 7 m/s 763 mmHg 72%
    16:00 +22°C° 0,1 mm 7 m/s 763 mmHg 74%
    17:00 +22°C° 0,1 mm 7 m/s 763 mmHg 76%
    18:00 +21°C° 0,1 mm 7 m/s 763 mmHg 78%
    19:00 +20°C° 0,1 mm 7 m/s 763 mmHg 79%
    20:00 +18°C° 0,1 mm 7 m/s 764 mmHg 80%
    21:00 +18°C° 0,1 mm 7 m/s 764 mmHg 80%
    22:00 +18°C° 0,4 mm 7 m/s 764 mmHg 81%
    23:00 +18°C° 0,4 mm 7 m/s 764 mmHg 82%

    27 Mai, Dimanche

    Heure Température Précipitation Vent Pression Humidité
    00:00 +18°C° 0,4 mm 8 m/s 764 mmHg 83%
    01:00 +17°C° 0 mm 7 m/s 764 mmHg 83%
    02:00 +17°C° 0 mm 7 m/s 763 mmHg 83%
    03:00 +17°C° 0 mm 7 m/s 763 mmHg 83%
    04:00 +17°C° 0 mm 7 m/s 763 mmHg 83%
    05:00 +17°C° 0 mm 7 m/s 763 mmHg 83%
    06:00 +17°C° 0 mm 7 m/s 763 mmHg 84%
    07:00 +18°C° 0 mm 7 m/s 763 mmHg 81%
    08:00 +20°C° 0 mm 7 m/s 763 mmHg 78%
    09:00 +20°C° 0 mm 7 m/s 764 mmHg 76%
    10:00 +21°C° 0 mm 7 m/s 764 mmHg 73%
    11:00 +22°C° 0 mm 7 m/s 763 mmHg 71%
    12:00 +23°C° 0 mm 8 m/s 763 mmHg 68%
    13:00 +23°C° 0 mm 8 m/s 763 mmHg 68%
    14:00 +23°C° 0 mm 8 m/s 763 mmHg 67%
    15:00 +23°C° 0 mm 8 m/s 762 mmHg 67%
    16:00 +22°C° 0 mm 8 m/s 762 mmHg 70%
    17:00 +21°C° 0 mm 7 m/s 762 mmHg 73%
    18:00 +20°C° 0 mm 7 m/s 762 mmHg 76%
    19:00 +18°C° 0 mm 7 m/s 762 mmHg 78%
    20:00 +17°C° 0 mm 6 m/s 762 mmHg 80%
    21:00 +16°C° 0 mm 6 m/s 762 mmHg 82%
    22:00 +16°C° 0 mm 6 m/s 762 mmHg 84%
    23:00 +16°C° 0 mm 6 m/s 762 mmHg 85%

    28 Mai, Lundi

    Heure Température Précipitation Vent Pression Humidité
    00:00 +16°C° 0 mm 5 m/s 762 mmHg 87%
    01:00 +16°C° 0 mm 5 m/s 761 mmHg 89%
    02:00 +15°C° 0 mm 5 m/s 761 mmHg 90%
    03:00 +15°C° 0 mm 5 m/s 761 mmHg 92%
    04:00 +16°C° 0 mm 5 m/s 761 mmHg 91%
    05:00 +16°C° 0 mm 5 m/s 761 mmHg 90%
    06:00 +17°C° 0 mm 5 m/s 761 mmHg 89%
    07:00 +19°C° 0 mm 6 m/s 761 mmHg 85%
    08:00 +20°C° 0 mm 6 m/s 761 mmHg 82%
    09:00 +21°C° 0 mm 6 m/s 761 mmHg 79%
    10:00 +22°C° 0 mm 6 m/s 761 mmHg 77%
    11:00 +23°C° 0 mm 6 m/s 760 mmHg 75%
    12:00 +23°C° 0 mm 6 m/s 760 mmHg 74%
    13:00 +23°C° 0 mm 6 m/s 760 mmHg 74%
    14:00 +23°C° 0 mm 6 m/s 760 mmHg 74%
    15:00 +23°C° 0 mm 6 m/s 759 mmHg 74%
    16:00 +22°C° 0 mm 6 m/s 759 mmHg 77%
    17:00 +21°C° 0 mm 6 m/s 759 mmHg 79%
    18:00 +20°C° 0 mm 6 m/s 759 mmHg 82%
    19:00 +19°C° 0,1 mm 6 m/s 759 mmHg 85%
    20:00 +16°C° 0,1 mm 5 m/s 760 mmHg 89%
    21:00 +15°C° 0,1 mm 4 m/s 760 mmHg 92%
    22:00 +15°C° 0,3 mm 4 m/s 760 mmHg 93%
    23:00 +14°C° 0,3 mm 4 m/s 760 mmHg 94%
    Voir plus